Probability
40 36 30 25 22 22 22 20 20 22 22 20 18 14 12 12 12 10 8 7 5 3 2 3 2 1 1 0 0 1 2 2 1 0 0 0 0 0 0 0 0 0 0
45 41 35 29 26 24 22 20 20 21 21 19 16 13 11 11 11 10 9 8 8 6 5 5 3 1 0 0 0 1 1 1 0 0 0 0 0 0 0 0 0 0 0
50 48 42 37 34 29 24 21 20 18 17 15 13 11 10 10 11 11 11 11 11 9 9 8 6 4 2 1 1 1 0 0 0 0 0 0 0 0 0 0 0 0 0
49 50 49 45 42 36 30 25 21 18 14 11 9 8 10 13 14 15 14 13 12 11 10 10 9 8 6 4 2 1 0 0 0 0 0 0 0 0 0 0 0 0 0
41 45 47 45 43 40 36 30 25 20 16 12 9 9 12 16 16 16 15 13 11 9 9 9 9 9 7 5 2 1 1 2 1 1 0 0 0 0 0 0 0 0 0
36 38 40 40 39 39 40 36 29 23 19 15 13 11 13 14 13 11 10 8 7 6 6 7 7 6 5 4 2 1 1 2 2 2 1 1 1 1 0 0 0 0 0
38 38 40 39 38 39 41 39 33 26 20 17 15 13 12 12 9 6 4 4 3 3 5 6 6 4 4 3 2 1 1 1 2 2 2 2 2 1 0 0 0 0 0
37 37 38 39 39 39 39 38 34 28 22 17 14 13 13 11 8 4 2 2 3 4 6 7 6 5 4 3 3 2 2 1 1 1 1 1 1 1 0 0 0 0 0
31 32 32 33 35 36 35 35 33 29 24 17 14 13 12 9 5 4 3 3 5 6 7 7 6 4 3 3 3 2 2 2 1 1 0 0 0 0 0 0 0 0 0
25 25 25 26 28 29 30 30 30 28 24 17 12 9 8 6 3 3 3 4 5 6 5 6 5 4 3 3 2 1 1 2 3 2 1 1 1 0 0 0 0 0 0
20 20 21 23 24 24 25 26 26 24 21 16 10 5 4 3 1 1 2 3 4 4 4 4 5 4 3 2 1 0 1 2 3 3 3 2 2 1 1 1 0 0 0
17 17 18 21 22 22 23 23 22 20 18 15 8 4 2 1 0 1 1 1 2 2 2 3 3 3 2 1 0 0 0 1 3 3 3 4 4 3 3 2 1 1 0
14 15 17 18 19 19 19 19 17 16 16 13 7 4 3 2 0 0 0 0 0 1 1 1 1 1 1 0 0 0 0 1 2 3 4 4 5 4 4 3 3 2 1
12 12 12 13 13 13 14 13 12 13 12 10 6 5 4 2 1 0 0 0 0 0 0 0 0 0 0 0 1 1 1 1 2 3 3 4 4 4 3 4 4 3 2
11 10 8 7 7 7 8 8 8 8 7 6 5 5 4 2 1 0 0 0 0 0 0 0 0 0 0 1 2 2 2 2 3 3 3 3 3 3 3 3 3 2 1
9 8 6 4 4 4 5 5 4 3 3 2 2 3 3 1 0 0 0 0 0 0 0 0 0 0 0 1 3 3 3 3 3 3 3 3 3 3 1 1 2 1 1
9 7 5 3 3 3 4 4 3 2 1 1 1 1 1 0 0 0 0 0 0 0 0 0 0 0 1 2 3 3 3 3 3 3 3 3 3 2 1 0 1 1 1
9 8 6 4 3 3 3 3 3 3 2 2 1 0 0 0 0 0 0 0 0 0 0 0 0 0 1 2 3 2 2 2 2 2 2 2 3 2 1 1 1 1 1
9 9 7 5 4 3 3 3 3 3 4 3 2 1 0 0 0 0 0 0 0 0 0 0 0 0 1 1 1 1 1 1 1 1 0 1 2 2 2 2 2 2 2
9 9 8 7 4 3 3 3 3 4 4 4 3 2 1 0 0 0 0 0 0 0 0 0 0 0 0 0 0 0 0 0 0 0 0 0 1 1 2 3 3 3 3
8 8 7 6 4 3 3 3 3 4 4 4 3 2 1 0 0 0 0 0 0 0 0 0 0 0 0 0 0 0 0 0 0 0 0 0 0 0 1 2 3 3 2
5 6 6 5 4 3 3 3 3 3 3 3 3 2 1 0 0 0 0 0 0 0 0 0 0 0 0 0 0 0 0 0 0 0 0 0 0 0 0 1 2 1 1
2 3 4 3 2 2 2 2 1 1 3 3 3 2 1 0 0 0 0 0 0 0 0 0 0 0 0 0 0 0 0 0 0 0 0 0 0 0 0 1 1 0 0
0 1 1 1 1 1 1 1 0 1 2 3 3 2 1 0 0 0 0 0 0 0 0 0 0 0 0 0 0 0 0 0 0 0 0 0 0 0 0 0 0 0 0
0 0 0 0 0 0 0 0 0 0 1 2 3 2 1 0 0 0 0 0 0 0 0 0 0 0 0 0 0 0 0 0 0 0 0 0 0 0 1 1 1 0 0
0 0 0 0 0 0 0 0 0 0 1 2 2 1 0 0 0 0 0 0 0 0 0 0 0 0 0 0 0 0 0 0 0 0 0 0 0 0 1 2 2 1 0
Wind_Speed
6 5 5 4 4 4 4 4 4 3 3 3 3 3 3 2 2 2 2 1 1 0 1 1 1 1 1 1 1 1 1 2 2 0 1 1 2 1 1 1 1 1 1
6 5 5 4 4 3 3 3 3 3 2 2 2 3 3 2 2 3 2 1 2 1 1 1 1 1 2 1 1 1 1 1 2 1 1 1 1 1 1 1 1 1 1
5 5 4 3 3 3 3 3 2 2 2 2 2 2 2 2 3 3 3 2 2 1 1 1 1 2 2 1 1 1 1 2 2 2 0 1 1 1 1 2 2 1 1
5 5 4 3 3 3 3 2 2 2 2 2 2 2 3 3 3 2 2 2 2 1 1 1 1 1 1 1 2 1 2 2 2 2 1 1 1 1 1 1 1 2 1
4 4 4 3 3 3 3 3 3 3 2 2 2 2 3 3 2 3 3 3 3 2 2 2 3 4 4 2 2 2 2 2 2 2 1 1 1 1 1 1 0 1 2
4 4 4 3 3 3 3 3 3 3 2 3 3 3 3 2 3 5 4 3 3 3 2 2 3 4 5 6 5 5 4 3 2 2 1 1 1 1 1 0 1 1 1
4 4 4 4 4 3 3 4 3 3 3 4 3 4 3 3 3 3 5 4 3 2 2 2 2 3 3 3 5 7 6 5 3 3 2 1 1 2 1 1 1 1 1
4 3 3 4 4 3 3 3 3 3 3 3 3 3 3 4 4 4 5 4 3 2 2 2 3 2 2 3 4 4 4 3 2 2 2 1 1 1 2 2 2 1 1
4 3 3 3 4 4 3 3 3 3 3 4 3 3 4 3 4 4 5 4 4 3 3 3 3 2 3 4 4 4 3 3 4 5 3 2 3 3 2 2 2 2 1
3 3 3 3 3 3 3 4 4 4 4 5 5 4 4 3 4 5 6 4 4 3 3 3 4 4 4 4 4 3 2 1 2 3 4 4 3 3 3 2 2 2 1
3 4 3 3 3 3 3 3 4 5 5 5 5 4 4 4 4 5 5 4 4 3 3 2 2 4 5 4 3 2 2 1 1 2 2 2 2 2 2 1 1 2 2
5 4 4 3 3 3 4 3 3 4 5 5 5 4 4 4 4 5 6 5 4 4 2 1 2 4 5 4 3 2 2 2 2 2 2 2 1 2 2 1 1 1 1
5 5 4 4 4 4 4 4 3 3 3 3 3 3 2 3 3 6 7 6 6 4 2 3 3 4 4 3 4 4 3 2 2 2 1 1 1 1 1 2 2 2 2
5 4 3 4 5 5 4 3 3 3 3 3 3 3 2 2 2 2 2 3 5 4 3 3 4 5 4 4 4 3 2 2 2 1 0 1 2 2 2 1 1 1 2
5 4 4 4 4 5 5 4 3 2 3 4 3 3 3 2 1 2 3 2 2 3 3 3 4 3 4 3 3 3 3 3 3 2 1 2 2 2 2 1 1 1 1
4 4 3 3 3 4 4 5 9 7 8 7 6 4 3 3 4 6 6 6 6 6 5 3 2 2 2 2 2 2 3 2 2 1 1 1 1 1 1 1 1 1 0
4 4 3 3 3 3 3 4 4 5 9 8 7 6 6 5 6 7 7 7 7 6 4 2 2 2 1 2 1 1 2 2 1 1 1 1 1 1 1 1 1 1 1
4 5 4 3 3 3 3 2 3 3 3 3 4 6 6 6 6 7 7 7 5 3 2 2 1 1 1 2 2 1 1 2 2 2 1 2 1 1 1 1 1 1 1
4 3 3 3 3 3 3 3 3 3 3 2 2 3 4 5 6 6 6 4 3 2 2 1 1 1 1 1 1 1 1 2 2 2 2 2 1 1 1 1 1 2 1
3 6 5 3 3 2 2 3 3 3 3 2 2 1 2 3 3 3 2 2 2 2 1 1 1 1 1 1 2 2 2 2 3 2 2 2 2 1 1 1 1 1 1
3 4 5 4 3 2 2 3 3 3 3 2 2 2 4 3 3 2 2 1 1 1 1 1 1 1 1 1 1 2 2 2 2 2 2 2 2 2 2 1 1 1 1
3 3 3 3 2 2 2 2 3 3 3 3 2 2 4 3 2 2 1 1 1 1 2 2 1 1 1 1 1 1 1 2 2 2 2 2 2 2 2 1 2 2 2
3 3 3 3 3 4 3 2 3 3 3 2 3 2 2 2 2 2 1 1 1 1 1 2 2 1 1 1 1 0 0 2 2 2 2 2 2 2 2 1 2 2 2
3 4 3 3 2 3 3 3 3 3 3 3 3 3 2 2 2 2 2 2 2 2 1 1 1 1 1 1 1 1 1 2 2 2 2 1 2 2 1 1 2 2 1
3 3 3 3 3 3 3 3 3 3 3 3 3 3 2 2 2 2 2 2 2 2 2 1 1 1 1 1 1 2 3 3 2 2 1 1 1 2 1 1 1 2 1
3 3 3 3 3 3 3 3 3 3 3 3 3 3 3 2 2 2 1 2 2 1 1 1 1 1 1 1 2 3 3 3 3 3 1 1 1 2 2 2 2 2 2
Wind_Direction
182 185 185 189 194 191 192 199 198 198 191 191 188 189 187 183 177 154 156 161 157 12 11 32 337 332 357 5 36 67 93 131 154 290 8 17 54 79 65 54 62 93 108
176 175 180 183 188 191 195 199 191 191 190 188 174 168 172 165 151 144 143 147 147 146 4 26 351 15 25 19 42 52 66 118 140 152 11 8 35 82 71 46 39 68 107
161 164 168 171 178 190 193 192 180 171 169 165 153 151 150 148 142 144 147 140 142 143 110 81 14 53 31 21 42 51 48 69 89 123 90 14 24 39 46 31 44 33 78
151 151 158 170 173 179 175 160 147 145 143 143 140 145 146 144 135 137 136 129 119 110 94 94 80 84 83 56 57 63 81 84 83 89 72 43 25 5 40 40 24 12 36
146 150 161 161 149 139 133 128 126 125 131 123 110 116 133 138 135 132 122 116 108 92 72 63 66 72 70 80 93 100 98 99 95 99 97 55 24 16 350 330 44 12 21
141 150 145 138 134 135 135 127 121 115 110 101 92 95 106 118 117 122 126 117 104 101 90 74 74 64 65 71 77 84 99 117 130 130 136 141 223 249 263 182 144 95 324
127 128 131 141 140 142 139 126 127 125 114 106 102 97 94 80 99 122 121 115 109 113 113 94 71 61 63 73 68 62 53 58 101 145 139 196 206 217 181 177 174 150 206
105 102 107 117 125 121 120 127 131 120 116 112 105 104 96 69 83 104 106 102 97 88 96 99 92 64 59 88 82 67 51 37 50 95 136 199 198 205 189 188 185 133 51
109 109 103 111 116 118 129 132 122 119 110 99 92 90 87 65 64 89 105 98 90 72 69 70 87 87 66 88 92 83 57 25 42 59 66 62 52 52 86 94 77 87 32
110 102 101 115 124 130 131 122 113 111 108 103 86 76 78 68 62 85 104 107 97 82 60 50 60 77 82 93 107 107 94 10 33 36 33 27 29 31 51 110 143 134 122
99 88 80 84 106 117 113 112 117 114 110 101 91 73 67 61 60 75 92 107 114 101 80 56 42 62 71 73 98 120 164 164 73 64 45 29 26 22 15 21 144 154 154
84 80 74 67 77 91 100 99 105 113 111 106 94 76 57 56 54 61 72 82 99 106 97 70 52 60 57 51 57 67 89 85 74 64 47 17 4 348 337 342 6 44 159
82 74 69 67 65 73 91 102 102 103 108 112 109 100 77 56 49 61 69 72 77 87 86 80 65 56 46 40 40 51 63 71 77 66 30 322 304 308 351 12 14 21 17
93 85 78 79 72 65 70 80 93 100 110 110 115 115 99 76 64 68 72 76 75 75 68 62 62 57 50 42 32 35 45 63 95 93 344 330 349 10 15 18 25 16 26
100 97 91 87 87 77 70 61 75 75 119 128 130 133 130 123 219 140 126 109 101 94 84 57 47 43 38 33 31 28 29 40 42 24 22 5 360 4 348 352 27 42 45
109 102 101 101 96 96 95 71 51 65 74 83 97 114 103 113 117 110 100 90 86 95 86 70 54 46 38 24 27 21 22 25 18 29 34 17 354 349 345 353 19 52 3
119 118 111 108 109 111 111 111 94 55 55 61 67 79 91 94 92 98 94 84 81 92 86 76 63 48 32 22 18 21 2 345 2 33 29 1 349 343 352 350 350 352 319
115 124 124 123 123 120 119 121 122 118 94 50 41 57 72 81 86 96 99 90 70 67 83 80 63 51 42 30 17 8 360 5 12 10 0 351 341 328 338 338 324 298 283
117 121 123 123 120 119 120 118 115 112 114 107 79 49 57 75 78 82 93 93 97 83 74 73 63 58 44 28 16 15 22 19 12 4 353 342 338 341 324 312 308 320 312
114 122 122 122 118 117 121 121 120 119 120 118 118 121 99 89 85 77 81 94 96 89 85 84 73 69 59 37 28 28 27 19 8 360 339 334 332 333 314 306 303 310 293
108 115 115 111 118 127 131 133 132 131 134 133 136 136 131 118 123 119 114 110 120 123 121 114 100 73 63 56 43 33 28 4 342 333 328 327 329 332 326 314 300 302 309
108 109 113 117 123 124 129 132 129 129 133 130 118 105 118 114 121 123 125 130 134 138 135 125 111 88 94 93 73 49 11 335 326 330 325 322 325 327 332 336 336 333 336
112 113 110 110 117 126 121 120 124 125 123 118 118 113 113 117 115 114 121 126 115 105 99 106 113 91 47 52 67 125 238 276 277 278 292 312 325 327 330 329 327 335 336
116 118 118 120 117 123 127 130 132 131 126 121 119 123 127 128 125 124 125 117 108 100 98 97 105 110 86 42 354 316 291 282 277 272 271 287 313 317 321 327 319 316 323
116 118 118 121 121 123 128 131 133 132 129 127 126 123 120 117 115 117 115 111 115 111 101 94 82 75 65 42 354 326 324 327 325 321 304 307 326 326 322 315 311 316 315
116 116 114 114 114 117 122 126 127 126 124 118 116 117 117 113 109 107 104 103 112 117 109 99 101 88 15 339 334 342 341 335 335 341 350 357 355 347 344 330 332 335 332